Rockland, ME

4:02 PM EST on December 09, 2019 (GMT -0500)
Knox County Regional

Weather History for KRKD - November, 2019

Change the Weather History Date:

Sunday, November 17, 2019

  Actual Average Record
Temperature  
Mean Temperature 26 °F -  
Max Temperature 33 °F 43 °F 89 °F (2006)
Min Temperature 19 °F 30 °F 19 °F (1997)
Degree Days  
Heating Degree Days 39    
Moisture  
Dew Point 17 °F    
Average Humidity 65    
Maximum Humidity 78    
Minimum Humidity 54    
Precipitation  
Precipitation 0.00 in - - ()
Sea Level Pressure  
Sea Level Pressure 30.43 in    
Wind  
Wind Speed 5 mph (NNE)    
Max Wind Speed 12 mph    
Max Gust Speed 18 mph    
Visibility 10 miles    
Events      
Averages and records for this station are not official NWS values.
T = Trace of Precipitation, MM = Missing Value Source: NWS Daily Summary

Daily Weather History Graph

Daily Weather History Graph

Search for Another Location

Airport or City:

Astronomy

Nov. 17, 2019 Rise Set
Actual Time 6:33 AM EST 4:08 PM EST
Civil Twilight 6:02 AM EST 4:39 PM EST
Nautical Twilight 5:27 AM EST 5:14 PM EST
Astronomical Twilight 4:53 AM EST 5:48 PM EST
Moon 8:38 PM EST (11/17) 11:19 AM EST (11/17)
Length of Visible Light 10h 37m
Length of Day
9h 34m
Waning Gibbous, 73% of the Moon is Illuminated
Nov 17
Waning Gibbous
Nov 19
Last Quarter
Nov 26
New
Dec 4
First Quarter
Dec 12
Full

Hourly Weather History & Observations

Time (EST) Temp. Windchill Dew Point Humidity Pressure Visibility Wind Dir Wind Speed Gust Speed Precip Events Conditions
12:56 AM 21.0 °F 14.6 °F 8.1 °F 57% 30.51 in 10.0 mi NNW 4.6 mph - N/A   Clear
1:56 AM 21.0 °F - 10.9 °F 65% 30.51 in 10.0 mi Calm Calm - N/A   Clear
2:56 AM 19.9 °F - 9.0 °F 62% 30.53 in 10.0 mi Calm Calm - N/A   Clear
3:56 AM 19.0 °F - 10.0 °F 68% 30.52 in 10.0 mi Calm Calm - N/A   Clear
4:56 AM 23.0 °F 14.7 °F 14.0 °F 68% 30.51 in 10.0 mi Variable 6.9 mph - N/A   Clear
5:56 AM 23.0 °F 13.1 °F 16.0 °F 74% 30.52 in 10.0 mi NNE 9.2 mph - N/A   Clear
6:56 AM 24.1 °F 14.4 °F 17.1 °F 75% 30.52 in 10.0 mi NNE 9.2 mph - N/A   Clear
7:56 AM 25.0 °F 17.1 °F 18.0 °F 75% 30.52 in 10.0 mi Variable 6.9 mph - N/A   Clear
8:56 AM 27.0 °F 17.3 °F 19.0 °F 72% 30.52 in 10.0 mi NNE 10.4 mph - N/A   Clear
9:56 AM 28.0 °F 18.1 °F 18.0 °F 66% 30.51 in 10.0 mi ENE 11.5 mph - N/A   Clear
10:56 AM 30.0 °F 24.1 °F 19.0 °F 64% 30.50 in 10.0 mi NE 5.8 mph - N/A   Clear
11:56 AM 30.9 °F 25.2 °F 19.9 °F 64% 30.46 in 10.0 mi Variable 5.8 mph - N/A   Clear
12:56 PM 32.0 °F 24.8 °F 18.0 °F 56% 30.43 in 10.0 mi NE 8.1 mph - N/A   Clear
1:56 PM 32.0 °F 28.7 °F 17.1 °F 54% 30.42 in 10.0 mi Variable 3.5 mph - N/A   Clear
2:56 PM 32.0 °F 27.5 °F 18.0 °F 56% 30.41 in 10.0 mi NNE 4.6 mph - N/A   Clear
3:56 PM 32.0 °F - 19.0 °F 59% 30.39 in 10.0 mi Calm Calm - N/A   Clear
4:56 PM 28.9 °F 25.2 °F 19.9 °F 69% 30.38 in 10.0 mi NNE 3.5 mph - N/A   Clear
5:56 PM 26.1 °F - 19.9 °F 78% 30.36 in 10.0 mi Calm Calm - N/A   Clear
6:56 PM 28.0 °F 22.8 °F 19.0 °F 69% 30.35 in 10.0 mi NNE 4.6 mph - N/A   Clear
7:56 PM 30.9 °F 24.3 °F 19.0 °F 61% 30.32 in 10.0 mi NE 6.9 mph - N/A   Clear
8:56 PM 33.1 °F 26.1 °F 19.9 °F 59% 30.30 in 10.0 mi NE 8.1 mph - N/A   Mostly Cloudy
9:56 PM 33.1 °F 28.7 °F 21.9 °F 64% 30.28 in 10.0 mi Variable 4.6 mph - N/A   Overcast
10:56 PM 33.1 °F 25.5 °F 21.9 °F 64% 30.25 in 10.0 mi NNE 9.2 mph - N/A   Clear
11:56 PM 33.1 °F 24.4 °F 25.0 °F 72% 30.21 in 10.0 mi NNE 11.5 mph 18.4 mph N/A   Clear